Location: Albany
(35.0000°S, 118.0000°E)
Time: 16:27:42
(UTC-05:00)

Cosmos 1346 Rocket - Visible Passes

Search period start: 24 November 2014 00:00
Search period end: 04 December 2014 00:00
Orbit: 529 x 569 km, 81.2° (Epoch: 23 November)

Date Brightness Start Highest point End Pass type
(mag) Time Alt. Az. Time Alt. Az. Time Alt. Az.
24 Nov 4.1 13:26:03 10° S 13:29:49 37° ESE 13:31:44 23° NE visible
24 Nov 4.8 15:04:28 10° WSW 15:05:55 12° W 15:07:22 10° WNW visible
25 Nov 3.9 13:21:21 10° S 13:25:11 41° ESE 13:26:27 31° ENE visible
25 Nov 4.9 15:00:33 10° WSW 15:01:14 10° W 15:01:54 10° W visible
26 Nov 3.6 13:16:39 10° S 13:20:32 47° E 13:21:14 42° ENE visible
27 Nov 3.4 13:11:57 10° S 13:15:53 53° E 13:16:05 52° E visible
28 Nov 3.3 13:07:15 10° S 13:10:59 58° ESE 13:10:59 58° ESE visible
29 Nov 3.4 13:02:33 10° S 13:05:55 56° SSE 13:05:55 56° SSE visible
30 Nov 3.6 12:57:51 10° S 13:00:54 50° S 13:00:54 50° S visible
01 Dec 3.8 12:53:10 10° S 12:55:55 43° S 12:55:55 43° S visible
02 Dec 4.1 12:48:28 10° S 12:50:58 37° SSW 12:50:58 37° SSW visible
03 Dec 4.3 12:43:47 10° SSW 12:46:01 32° SSW 12:46:01 32° SSW visible
